This is the latest recevied weather packets stored in our database for station/object EA1IQY-10. If no packets are shown the sender has not sent any weather packets the latest 10 day(s).
| Time | Temp. | Humidity | Pressure | Rain* | Wind** | Luminosity | Snow |
|---|---|---|---|---|---|---|---|
| 1777515136 | 18.33° C | 100% | 1001.5 hPa | - | - | - | - |
| 1777514235 | 21.11° C | 100% | 1001.4 hPa | - | - | - | - |
| 1777513335 | 18.33° C | 100% | 1001.4 hPa | - | - | - | - |
| 1777512435 | 21.11° C | 100% | 1001.3 hPa | - | - | - | - |
| 1777511535 | 21.11° C | 100% | 1001.3 hPa | - | - | - | - |
| 1777510635 | 20° C | 100% | 1001.2 hPa | - | - | - | - |
| 1777509735 | 20° C | 100% | 1001.3 hPa | - | - | - | - |
| 1777508835 | 20° C | 100% | 1001.1 hPa | - | - | - | - |
| 1777507934 | 20.56° C | 100% | 1000.9 hPa | - | - | - | - |
| 1777507034 | 20° C | 100% | 1000.8 hPa | - | - | - | - |
| 1777506134 | 20.56° C | 100% | 1000.6 hPa | - | - | - | - |
| 1777505234 | 19.44° C | 100% | 1000.5 hPa | - | - | - | - |
| 1777504334 | 21.11° C | 100% | 1000.2 hPa | - | - | - | - |
| 1777503434 | 17.22° C | 100% | 1000.3 hPa | - | - | - | - |
| 1777502534 | 17.78° C | 100% | 1000.2 hPa | - | - | - | - |
| 1777501634 | 18.33° C | 100% | 1000.1 hPa | - | - | - | - |
| 1777500734 | 20° C | 100% | 1000 hPa | - | - | - | - |
| 1777499833 | 18.89° C | 100% | 999.8 hPa | - | - | - | - |
| 1777498933 | 17.78° C | 100% | 999.8 hPa | - | - | - | - |
| 1777498033 | 18.89° C | 100% | 999.6 hPa | - | - | - | - |
| 1777497133 | 17.22° C | 100% | 999.5 hPa | - | - | - | - |
| 1777496233 | 17.78° C | 100% | 999.4 hPa | - | - | - | - |
| 1777495644 | 19.44° C | 100% | 998.8 hPa | - | - | - | - |
| 1777495333 | 19.44° C | 100% | 999.2 hPa | - | - | - | - |
| 1777494432 | 19.44° C | 100% | 998.8 hPa | - | - | - | - |
* Rain since midnight (hover to see other rain measurements)
** Current wind speed in m/s (hover to see current wind gust speed)